Weather Roundup
Issued by NWS Springfield, MO

Home | Current Version | Previous Version | Text Only | Print | Product List | Glossary On
Versions: 1 2 3 4 5 6 7 8 9 10 11 12 13 14 15 16 17 18 19 20 21 22 23 24 25 26 27 28 29 30 31 32 33 34 35 36 37 38 39 40 41 42 43 44 45 46 47 48 49 50
000
NZUS99 KSGF 021110
HRRSGF

HOURLY WEATHER
NATIONAL WEATHER SERVICE SPRINGFIELD MO
600 AM CDT WED SEP 02 2015

......SGF CWA......

CITY           SKY/WX    TMP DP  RH WIND       PRES   REMARKS
SPRINGFIELD    CLEAR     70  64  81 SE12      30.09R
JOPLIN         PTCLDY    72  66  81 S12       30.06R
WEST PLAINS    CLEAR     67  64  90 CALM      30.13R
ROLLA          CLEAR     70  67  90 S8        30.09R
OSAGE BEACH    CLEAR     70  66  88 SE5       30.08R

......SURROUNDING SGF CWA......

CITY           SKY/WX    TMP DP  RH WIND       PRES   REMARKS
CHANUTE        PTCLDY    71  66  84 S8        30.02R
PARSONS        PTCLDY    70  67  90 S6        30.04R
COFFEYVILLE    CLEAR     71  67  87 S6        30.02S
EMPORIA        PTCLDY    71  65  81 S12       29.98S
GROVE OK       CLEAR     72  68  88 S3        30.07R
ROGERS AR      CLEAR     69  65  86 SE7       30.11R
SILOAM SPRINGS CLEAR     68  61  77 SE6       30.08R
HARRISON AR    CLEAR     66  64  93 SE3       30.11R
NEAR YELLVILLE CLEAR     64  61  88 CALM      30.08S

......KANSAS AND MISSOURI......

CITY           SKY/WX    TMP DP  RH WIND       PRES   REMARKS
KANSAS CTY INT CLOUDY    74  65  73 S10       30.00R
DOWNTOWN KC    PTCLDY    75  66  73 S7        29.99R
COLUMBIA       CLEAR     70  69  97 S8        30.07R
SEDALIA        PTCLDY    71  66  84 S9        30.06R
ST JOSEPH      LGT RAIN  73  68  84 SE5       29.99S
ST LOUIS       CLEAR     76  68  76 CALM      30.09R
SPIRIT OF STL  CLEAR     70  69  97 CALM      30.07R
KIRKSVILLE     MOCLDY    70  67  90 S5        30.06R FOG
WICHITA        MOCLDY    72  63  73 S10       29.99R
TOPEKA         PTCLDY    74  66  76 S7        29.96S
OLATHE         PTCLDY    69  66  90 S7        30.00S

......TENNESSEE......

CITY           SKY/WX    TMP DP  RH WIND       PRES   REMARKS
MEMPHIS        CLOUDY    76  70  82 CALM      30.09R
NASHVILLE      MOCLDY    70  67  90 CALM      30.12R

......ARKANSAS.......

CITY           SKY/WX    TMP DP  RH WIND       PRES   REMARKS
FAYETTEVILLE   CLEAR     67  66  97 CALM      30.11R
FT SMITH       CLEAR     71  66  84 NE5       30.07R
LITTLE ROCK    PTCLDY    72  68  87 CALM      30.08R

......OKLAHOMA.......

CITY           SKY/WX    TMP DP  RH WIND       PRES   REMARKS
TULSA          PTCLDY    74  67  78 S8        30.02R
PONCA CITY     CLEAR     74  64  71 VRB6      30.01R
MCALESTER      PTCLDY    72  68  87 CALM      30.06S
OKLAHOMA CITY  PTCLDY    68  65  90 S6        30.04R

......IOWA............

CITY           SKY/WX    TMP DP  RH WIND       PRES   REMARKS
DES MOINES     TSTM      72  67  84 SW9       29.99R
QUAD CITIES    CLEAR     72  66  81 CALM      30.03R

......ILLINOIS........

CITY           SKY/WX    TMP DP  RH WIND       PRES   REMARKS
QUINCY         CLEAR     71  68  90 S6        30.05R
CHICAGO        PTCLDY    73  68  84 SW7       30.03R



USA.gov is the U.S. government's official web portal to all federal, state and local government web resources and services.